Theta_e
323 317 314 303 295 295 290 296 299 298 300 307 312 309 309 312 309 303 328 337 339 342 348 350 353 352 348 344 343 340 339 338 338 338 337 336 335 334 334 334 334 333 333 332 332 332 331 330 328
316 313 303 296 286 287 288 298 301 304 304 308 314 316 316 314 326 329 332 339 342 346 346 348 352 351 346 343 341 339 338 338 337 336 335 334 334 334 334 333 332 331 330 330 329 328 327 327 326
313 311 297 293 286 284 286 298 302 305 307 306 311 321 320 320 329 330 334 341 344 344 347 347 351 348 344 342 339 338 338 337 336 335 334 334 334 333 332 332 328 328 327 327 326 325 325 324 324
304 301 294 288 284 289 288 292 295 295 299 308 316 316 324 330 331 333 341 342 342 344 346 348 349 346 342 340 339 338 338 336 335 334 334 333 332 331 329 328 327 325 325 324 324 323 322 321 323
300 295 285 282 284 289 291 292 293 293 293 295 306 308 318 330 336 340 341 342 342 343 344 344 348 344 341 339 338 338 336 335 335 334 333 332 331 328 327 325 324 323 322 321 321 319 319 319 324
294 291 282 280 284 288 289 293 292 292 293 295 298 311 316 330 336 339 341 340 342 341 341 342 344 343 340 340 338 336 335 335 334 333 332 330 328 326 325 324 323 322 321 320 320 319 319 322 322
291 288 283 281 285 287 289 296 292 294 294 295 304 310 317 332 337 339 339 339 340 338 338 338 337 337 339 339 338 335 334 334 333 332 330 327 325 324 324 323 322 321 320 320 319 319 319 320 322
294 291 285 283 284 286 292 296 298 296 295 300 319 311 313 329 337 338 337 337 335 335 334 333 332 332 331 332 336 335 335 335 331 330 327 326 325 324 322 321 321 320 320 319 319 318 318 319 320
298 288 284 286 286 289 295 294 297 300 296 298 301 316 322 333 336 334 332 331 331 331 330 329 327 326 326 327 330 333 333 331 330 326 325 318 308 309 309 319 322 319 318 318 319 319 317 315 318
293 286 287 293 292 292 295 295 296 295 295 296 298 303 313 334 332 329 328 326 327 327 328 327 324 324 324 328 322 321 324 319 317 315 306 299 299 302 307 314 318 317 318 319 319 317 313 306 298
293 288 292 295 297 298 296 295 297 294 292 296 295 298 311 330 330 328 328 327 326 327 326 324 322 321 321 320 318 316 315 313 312 309 306 299 299 299 298 298 299 299 306 300 302 301 300 298 298
291 296 296 298 299 298 295 297 295 295 296 299 299 299 309 325 326 327 327 326 325 325 324 322 320 318 316 316 316 314 311 308 307 309 302 297 297 297 297 298 298 298 299 299 299 299 299 299 298
292 294 298 299 299 298 298 295 295 296 298 300 299 300 302 315 321 327 328 327 325 324 323 321 320 317 315 314 311 310 306 306 305 305 299 299 299 298 298 298 299 299 299 300 299 300 300 300 299
295 297 297 298 297 297 295 295 295 297 296 298 298 298 298 305 320 323 327 325 323 324 322 320 319 316 314 311 309 309 307 306 303 302 300 301 300 299 299 299 300 300 301 301 301 301 300 300 299
297 291 293 294 295 295 296 291 292 297 296 296 297 297 298 298 311 322 326 326 324 323 322 318 318 314 313 311 309 307 307 305 301 301 301 301 301 300 300 300 300 300 301 302 301 301 300 300 300
290 288 283 291 293 296 293 285 293 297 296 295 296 297 296 297 299 316 323 327 325 323 319 318 317 313 311 309 307 307 306 304 302 301 301 301 301 301 301 301 301 301 302 301 301 300 299 298 297
284 279 283 286 294 292 290 286 291 295 294 294 295 295 295 296 297 309 324 326 325 321 319 317 316 312 310 308 307 306 305 303 302 301 301 301 302 303 303 302 302 303 302 302 302 300 299 295 295
279 280 283 284 288 290 287 286 291 293 293 293 293 293 293 295 297 301 320 325 327 320 318 317 316 312 310 309 307 306 305 303 303 302 302 303 304 305 305 304 304 304 302 301 301 299 297 295 294
285 282 282 287 290 286 285 286 289 293 293 292 293 292 293 294 298 297 314 324 325 320 316 315 314 313 310 307 305 305 304 304 303 303 304 304 305 306 305 305 304 303 302 300 300 298 295 293 292
285 282 282 285 288 287 286 286 290 292 292 293 293 293 293 294 295 296 310 321 325 319 317 315 314 313 311 310 308 308 306 305 305 305 305 306 306 307 306 305 304 303 302 300 299 298 296 294 292
283 282 281 282 286 287 285 282 284 289 291 293 294 295 295 295 295 296 310 320 323 318 317 315 314 313 313 311 309 308 307 306 306 306 306 306 306 308 307 306 305 304 302 300 299 296 295 293 293
281 287 287 286 285 280 286 275 281 285 287 289 290 291 293 295 297 297 311 317 320 317 316 315 315 313 313 311 309 307 307 305 307 305 306 308 307 307 307 306 305 304 302 300 299 298 296 293 292
284 289 287 286 284 283 279 279 280 286 287 289 291 291 292 293 295 296 311 316 319 314 312 313 313 314 313 313 310 308 306 305 306 307 306 306 306 307 307 306 305 304 302 300 298 296 295 294 291
290 286 283 282 284 276 278 279 279 283 286 289 292 293 292 293 293 298 310 317 318 311 311 311 311 312 312 312 310 309 307 305 306 305 305 305 306 306 306 306 304 303 300 298 297 295 292 291 291
284 279 272 269 269 272 280 280 281 288 288 288 290 292 294 297 292 303 311 313 306 307 308 309 310 310 311 311 311 309 308 307 306 306 305 304 303 303 303 304 303 301 298 297 295 293 290 289 288
282 281 271 267 267 272 280 277 282 287 288 289 292 292 299 301 293 304 310 305 306 307 307 309 309 309 310 310 309 308 308 307 306 306 305 305 304 304 304 303 299 296 295 294 292 290 289 288 289
282 281 285 281 279 277 276 281 287 288 288 291 293 295 300 302 301 302 304 305 305 306 307 308 308 308 309 310 309 308 308 308 307 307 307 307 306 305 304 300 296 294 293 292 290 288 288 287 287
286 288 281 282 272 272 274 275 278 284 285 290 291 292 299 302 305 306 307 304 305 306 307 308 308 308 310 310 310 309 309 309 309 309 307 306 305 302 298 294 293 291 291 290 288 288 287 286 286
285 283 287 286 283 276 271 275 285 284 286 289 290 293 299 301 304 306 307 307 305 306 307 308 309 308 309 310 310 310 310 310 308 305 303 302 300 297 294 292 291 290 288 287 286 286 286 285 286
287 285 284 281 276 279 274 278 287 285 289 291 291 294 297 301 304 305 308 310 309 309 309 308 309 309 310 310 310 307 305 304 303 300 297 298 295 292 291 290 289 287 287 286 285 285 286 284 284
Wind_Speed
10 7 2 5 4 5 4 8 3 4 2 3 2 3 8 2 7 7 1 5 15 18 17 18 21 20 19 18 17 16 15 14 13 13 12 12 12 11 11 11 11 11 11 10 10 10 9 9 9
7 4 5 3 6 4 7 4 6 7 5 6 2 3 3 2 2 6 8 10 18 17 15 15 22 21 19 19 18 17 16 15 14 13 13 12 13 12 12 12 12 11 11 10 10 10 9 9 9
6 3 4 4 4 7 6 4 8 7 9 3 3 2 1 3 1 12 3 17 18 16 14 16 22 22 20 19 18 17 16 15 14 13 13 13 13 12 12 12 11 11 11 10 10 10 9 9 9
4 5 5 4 6 6 3 4 6 9 6 4 3 6 3 3 5 6 15 16 17 14 14 19 22 21 20 20 19 18 17 16 15 14 13 13 13 12 12 12 11 10 11 10 10 9 9 10 10
4 3 2 1 4 6 5 6 8 6 4 5 4 5 3 5 4 14 17 16 18 15 14 15 21 21 20 20 19 18 17 16 16 15 14 13 13 13 12 12 11 10 10 10 10 10 10 10 11
4 3 3 1 4 6 7 7 6 6 7 12 7 2 3 1 11 13 15 18 15 15 13 14 20 19 19 19 19 18 18 17 16 15 14 14 13 13 12 12 11 11 11 11 12 12 13 13 12
5 4 2 1 3 5 2 10 5 7 7 6 7 5 1 4 9 12 12 12 13 13 13 12 13 13 17 17 17 18 18 18 17 16 15 14 13 13 12 12 12 12 12 11 11 12 12 12 14
5 4 2 3 3 4 6 8 6 6 8 12 4 4 4 6 10 12 12 12 12 11 11 11 9 9 8 10 17 16 16 15 16 16 14 11 11 12 13 12 12 13 12 11 10 11 11 12 13
3 4 2 3 3 7 5 7 3 5 5 6 6 6 13 8 11 12 11 10 11 9 12 9 8 7 6 6 10 14 15 14 14 13 13 9 4 5 7 7 10 11 10 9 11 11 11 13 14
4 3 5 3 2 5 9 5 13 5 9 5 6 14 15 16 13 16 15 13 12 12 12 11 8 8 8 7 6 6 7 5 5 5 7 5 4 4 5 6 9 9 11 11 11 11 12 9 5
1 3 2 5 7 5 5 8 5 4 4 5 7 12 14 9 14 14 13 14 11 12 11 10 9 7 7 6 5 3 3 4 4 7 5 6 4 3 3 3 3 3 7 4 6 6 4 6 4
3 6 4 5 4 6 5 5 7 7 10 9 9 8 10 8 7 11 12 12 14 14 13 12 9 8 6 4 5 5 5 4 3 4 6 5 3 3 3 3 3 4 3 5 4 3 4 6 6
3 3 6 8 11 7 7 9 10 15 10 10 9 9 10 9 7 9 10 11 13 13 13 13 12 9 7 7 4 4 4 5 5 4 5 5 5 3 3 3 3 3 3 4 4 4 4 5 5
4 7 9 7 7 6 6 9 4 15 2 7 8 11 10 9 9 8 12 15 15 15 15 14 13 9 8 6 6 5 4 5 4 4 5 6 5 5 2 3 3 3 3 3 4 4 4 4 4
5 5 7 2 4 5 7 7 8 9 5 7 8 10 10 10 10 13 9 15 17 14 16 16 14 11 10 8 7 4 4 5 5 4 6 6 6 7 5 3 3 3 3 5 4 4 4 4 3
5 3 5 5 6 4 5 11 6 14 7 14 12 8 9 11 8 8 11 14 16 15 17 15 14 13 10 9 6 5 4 4 4 4 4 6 6 7 6 3 3 3 3 4 4 3 4 4 4
6 4 8 9 5 4 2 23 7 16 17 17 9 9 9 11 9 8 11 16 12 13 16 15 14 16 11 8 6 6 6 4 4 4 4 5 6 7 6 4 3 3 3 3 3 3 3 3 3
5 7 6 10 6 6 13 25 15 13 15 17 12 10 9 11 16 8 10 11 10 14 15 15 12 13 12 7 5 4 4 4 4 4 4 6 4 6 6 4 4 4 4 3 3 3 4 3 2
6 5 11 14 12 8 9 20 21 19 19 18 14 9 10 12 14 6 9 11 11 14 14 15 15 13 11 6 6 4 5 4 3 3 6 6 4 5 6 5 3 3 4 3 3 2 3 4 2
7 8 13 10 6 8 13 27 25 20 19 17 13 12 11 11 8 8 7 10 16 15 16 16 15 14 11 9 6 4 4 3 3 3 4 6 6 5 5 5 5 4 4 4 3 2 2 2 4
5 6 5 10 7 7 8 12 7 7 8 7 8 15 11 14 15 10 8 14 16 16 17 16 17 16 12 11 8 5 5 5 3 2 3 4 6 4 6 5 5 5 3 3 2 2 3 3 3
5 1 3 7 10 7 6 9 9 8 11 5 9 9 12 11 15 9 11 13 18 16 16 14 13 15 11 11 11 14 8 8 4 4 4 4 5 5 5 5 5 5 4 4 3 2 2 2 3
8 3 6 6 10 10 2 4 11 6 10 14 14 9 9 7 11 11 13 15 18 11 15 15 15 14 14 12 10 10 7 4 4 4 7 6 5 5 4 6 5 5 4 4 5 3 4 2 2
6 6 2 1 1 3 4 4 8 4 5 11 13 12 9 8 8 8 7 12 16 10 11 12 16 16 14 13 5 12 13 8 7 6 5 4 4 3 4 5 5 4 5 4 4 5 4 4 4
2 5 6 7 3 6 0 3 11 10 7 6 12 16 14 10 7 7 10 13 10 13 13 12 15 14 15 12 12 7 10 11 9 8 7 6 4 2 5 5 5 4 5 5 4 4 5 4 3
2 2 4 4 4 7 0 6 7 5 7 8 8 9 11 14 6 7 12 10 13 15 14 14 14 14 16 17 10 8 7 6 5 6 7 4 3 4 4 5 4 5 6 5 5 3 4 5 4
1 3 3 4 3 4 3 8 9 4 9 14 15 14 18 16 6 3 5 10 11 13 16 16 14 12 14 15 13 5 9 10 7 7 6 5 6 4 5 5 5 5 6 6 5 4 5 4 4
4 3 2 1 4 6 6 6 6 8 10 13 15 12 16 13 7 5 6 6 5 5 8 12 12 14 14 15 11 11 6 11 8 7 6 6 6 6 7 7 6 5 6 5 6 5 3 5 4
3 3 4 3 3 3 6 7 6 3 5 9 10 8 10 10 8 4 4 7 6 7 8 9 11 15 15 14 12 11 11 10 7 6 4 6 6 8 7 7 7 6 6 5 6 5 3 6 5
4 6 7 4 5 4 2 11 2 2 4 5 7 7 7 6 6 7 6 7 9 9 9 9 12 13 14 14 12 11 10 9 8 9 7 7 8 6 7 6 7 6 6 6 6 6 6 6 6
Wind_Direction
330 324 71 42 71 66 243 246 259 249 248 318 282 150 197 141 166 206 150 156 137 148 154 158 153 148 148 150 143 143 140 140 135 131 124 120 118 115 110 106 101 96 92 87 88 82 74 68 61
328 343 42 83 112 149 253 225 231 247 260 326 358 338 316 188 82 128 128 163 146 147 153 154 150 146 153 151 148 146 144 141 137 132 129 127 125 119 113 108 101 98 96 92 88 84 77 69 65
334 34 91 138 155 198 231 198 228 307 305 261 282 109 323 239 125 167 169 150 144 147 149 152 148 142 152 151 149 149 145 141 138 136 135 131 124 120 116 110 106 102 98 95 90 84 77 73 72
9 7 31 113 218 268 238 336 337 338 325 14 22 289 320 344 189 188 145 146 142 144 147 152 145 142 153 153 151 150 146 143 142 140 135 131 126 121 117 113 108 106 102 99 94 88 82 78 81
32 50 66 81 265 278 300 329 310 323 276 303 322 267 253 344 117 140 152 149 146 145 146 147 138 151 156 154 152 149 148 146 144 140 137 132 126 123 118 115 112 107 103 101 94 88 84 82 85
41 84 59 252 284 293 303 346 312 340 319 316 334 286 257 142 144 155 154 156 149 143 142 146 134 155 159 154 152 151 150 148 145 141 137 133 130 125 121 116 111 106 102 99 93 85 85 86 78
99 78 192 200 268 320 352 330 27 321 314 298 321 265 332 170 159 153 151 144 143 139 139 138 138 155 157 153 150 153 153 149 144 143 139 134 131 127 122 115 110 105 103 98 89 86 85 78 72
99 87 37 254 213 261 342 351 316 345 289 315 359 324 289 214 160 147 147 146 138 138 136 127 136 143 149 150 151 155 151 145 145 140 133 126 126 128 124 115 111 106 99 91 84 82 82 76 77
95 68 218 264 359 294 314 336 319 290 297 311 334 332 300 182 155 150 146 144 143 142 133 128 129 125 127 130 150 148 141 141 138 129 125 111 105 110 113 120 102 99 92 89 83 77 74 71 72
87 122 219 229 242 254 301 301 306 334 321 301 319 335 346 158 174 165 162 159 155 152 143 144 137 139 136 143 117 115 120 109 115 119 116 113 122 130 115 88 79 85 84 82 81 78 68 64 65
85 191 208 270 287 297 272 297 268 283 271 259 302 313 334 217 176 173 170 165 162 151 148 148 141 138 132 134 129 117 112 119 127 134 132 127 112 80 86 78 64 72 75 61 64 59 56 63 67
346 246 241 275 294 315 281 283 290 233 247 253 282 287 323 299 226 180 172 163 157 161 151 147 144 142 126 129 142 140 136 137 147 152 144 133 121 120 110 103 95 89 76 82 74 72 71 66 71
233 301 308 290 291 253 257 245 253 268 251 270 285 296 297 284 248 264 183 163 160 163 158 159 153 154 148 143 136 140 151 155 158 156 152 139 132 137 121 104 94 88 87 84 77 76 76 68 72
301 287 286 281 306 282 276 278 157 272 331 275 274 282 276 270 250 269 182 177 173 167 164 161 163 155 152 153 154 164 157 157 152 159 161 152 139 126 129 121 109 98 98 95 91 89 85 75 79
268 304 306 0 355 300 308 284 223 278 323 282 294 279 280 270 282 210 232 184 176 174 167 167 163 159 161 166 165 163 170 160 152 162 161 155 143 136 145 134 116 116 98 100 88 75 75 72 62
328 32 352 296 343 285 34 270 306 306 315 303 289 275 278 275 249 245 212 233 181 169 171 174 164 165 164 163 161 160 163 155 148 152 153 150 143 134 131 136 131 127 103 103 93 89 73 70 66
7 305 294 316 216 263 115 291 279 295 288 283 265 271 271 284 284 242 202 203 181 169 172 175 168 162 166 164 157 151 152 153 145 138 148 153 145 134 127 138 137 123 101 89 103 60 98 67 63
282 296 268 275 279 275 285 272 289 284 279 274 270 248 253 262 268 242 219 201 174 170 178 168 164 167 157 151 127 117 129 137 136 146 146 143 149 134 126 126 137 125 103 86 77 96 52 85 104
277 264 270 272 275 290 265 284 286 284 274 270 263 224 241 247 262 237 230 188 182 169 164 167 165 171 151 145 141 144 160 137 125 143 145 139 147 139 137 129 132 125 114 120 128 94 78 39 37
279 282 284 285 288 300 299 291 288 277 267 257 253 251 223 239 247 255 215 191 186 175 172 177 172 167 169 156 154 137 131 111 116 135 146 144 148 151 138 136 136 126 111 95 83 106 109 77 18
267 234 287 284 326 260 325 289 318 287 273 284 256 253 250 219 234 235 194 196 190 175 177 178 177 168 169 155 124 104 89 79 91 121 120 146 148 152 136 137 129 130 119 117 93 109 115 129 31
289 315 304 310 325 318 62 295 302 318 321 309 290 287 274 227 221 222 188 189 198 183 172 170 174 161 156 162 158 154 155 156 162 151 135 131 122 143 129 134 125 124 122 120 113 93 88 104 116
249 338 278 288 298 309 349 258 271 335 338 326 313 292 301 260 208 215 184 187 197 170 170 166 163 168 160 168 167 142 132 114 124 110 130 120 112 114 135 126 122 122 119 107 109 103 81 59 107
301 306 338 172 218 270 230 174 286 295 306 308 309 321 312 327 228 215 195 178 181 161 159 161 164 168 163 151 172 151 141 136 135 139 116 111 107 125 118 109 121 123 106 112 117 82 82 85 79
338 16 341 355 359 235 162 206 251 284 297 269 301 322 324 319 250 176 157 168 147 156 160 162 161 165 161 156 156 162 149 139 149 147 137 135 130 141 139 135 140 122 111 110 86 95 87 77 88
270 102 145 281 289 281 248 236 256 225 295 301 305 301 336 339 285 188 164 162 161 158 158 166 163 156 154 142 153 132 132 110 121 139 133 133 124 123 125 119 105 123 107 109 105 97 91 88 81
233 253 195 260 218 271 258 287 302 5 343 343 347 357 355 349 338 155 140 154 161 164 165 161 159 151 146 140 125 112 136 128 124 106 111 121 116 113 121 117 120 110 99 99 116 98 84 98 83
167 288 271 263 293 301 285 278 248 345 331 333 340 350 355 352 8 109 140 121 125 147 155 150 148 151 154 139 140 133 113 105 114 123 142 144 136 128 138 131 105 96 100 113 96 89 92 92 71
137 257 219 276 231 277 312 268 205 287 305 318 322 341 352 356 355 27 133 125 123 117 141 148 153 143 145 138 144 148 150 128 143 129 151 146 137 129 136 120 128 120 111 98 87 90 105 82 73
182 218 187 252 263 249 178 275 230 257 310 320 323 336 350 2 360 28 53 120 131 136 146 147 146 146 142 135 139 130 122 127 140 134 150 122 116 110 109 119 108 111 99 91 106 95 71 72 56